Spokane Felts, WA

12:24 PM PST on February 19, 2018 (GMT -0800)
Felts

Weather History for KSFF - October, 2013

Change the Weather History Date:

Tuesday, October 22, 2013

  Actual Average Record
Temperature  
Mean Temperature 51 °F 46 °F  
Max Temperature 64 °F 56 °F 75 °F (2003)
Min Temperature 38 °F 35 °F 26 °F (2000)
Degree Days  
Heating Degree Days 14 19  
Month to date heating degree days 377 334  
Since 1 July heating degree days 511 545  
Cooling Degree Days 0 0  
Month to date cooling degree days 0 0  
Year to date cooling degree days 704 406  
Moisture  
Dew Point 41 °F    
Average Humidity 76    
Maximum Humidity 100    
Minimum Humidity 52    
Precipitation  
Precipitation 0.00 in 0.05 in 0.36 in (2004)
Month to date precipitation 0.12 0.89  
Year to date precipitation 11.80 12.47  
Sea Level Pressure  
Sea Level Pressure 30.20 in    
Wind  
Wind Speed 1 mph (ENE)    
Max Wind Speed 8 mph    
Max Gust Speed 10 mph    
Visibility 4 miles    
Events Fog    
T = Trace of Precipitation, MM = Missing Value Source: NWS Daily Summary

Daily Weather History Graph

Daily Weather History Graph

Search for Another Location

Airport or City:

Trip Planner

Search our weather history database for the weather conditions in past years. The results will help you decide how hot, cold, wet, or windy it might be!

Date:

Astronomy

Oct. 22, 2013 Rise Set
Actual Time 7:18 AM PDT 5:47 PM PDT
Civil Twilight 6:47 AM PDT 6:19 PM PDT
Nautical Twilight 6:11 AM PDT 6:55 PM PDT
Astronomical Twilight 5:35 AM PDT 7:30 PM PDT
Moon 8:20 PM PDT (10/22) 11:02 AM PDT (10/22)
Length of Visible Light 11h 31m
Length of Day
10h 28m
Waning Gibbous, 86% of the Moon is Illuminated
Oct 22
Waning Gibbous
Oct 26
Last Quarter
Nov 3
New
Nov 9
First Quarter
Nov 17
Full

Hourly Weather History & Observations

Time (PDT) Temp. Windchill Dew Point Humidity Pressure Visibility Wind Dir Wind Speed Gust Speed Precip Events Conditions
12:53 AM 41.0 °F - 39.0 °F 93% 30.22 in 8.0 mi Calm Calm - N/A   Clear
1:53 AM 39.9 °F - 37.9 °F 93% 30.22 in 6.0 mi Calm Calm - N/A   Clear
1:58 AM 39.2 °F - 39.2 °F 100% 30.22 in 1.8 mi Calm Calm - N/A   Clear
2:02 AM 39.2 °F - 37.4 °F 93% 30.22 in 0.5 mi Calm Calm - N/A Fog Fog
2:09 AM 39.2 °F - 39.2 °F 100% 30.22 in 1.0 mi Calm Calm - N/A   Clear
2:13 AM 39.2 °F - 39.2 °F 100% 30.22 in 3.0 mi Calm Calm - N/A   Clear
2:25 AM 39.2 °F - 39.2 °F 100% 30.23 in 1.8 mi Calm Calm - N/A   Clear
2:36 AM 39.2 °F - 37.4 °F 93% 30.22 in 3.0 mi Calm Calm - N/A   Clear
2:47 AM 37.4 °F - 37.4 °F 100% 30.22 in 1.8 mi Calm Calm - N/A   Clear
2:53 AM 37.9 °F 35.5 °F 37.0 °F 97% 30.22 in 1.8 mi NNE 3.5 mph - N/A   Clear
3:13 AM 39.2 °F - 37.4 °F 93% 30.22 in 1.0 mi Calm Calm - N/A   Mist
3:16 AM 37.4 °F - 37.4 °F 100% 30.22 in 0.5 mi Calm Calm - N/A Fog Fog
3:53 AM 39.0 °F 36.8 °F 37.9 °F 96% 30.22 in 0.8 mi NE 3.5 mph - N/A   Mist
3:56 AM 39.2 °F 37.0 °F 37.4 °F 93% 30.21 in 1.2 mi NE 3.5 mph - N/A   Scattered Clouds
4:00 AM 39.2 °F 37.0 °F 37.4 °F 93% 30.21 in 3.0 mi NE 3.5 mph - N/A   Scattered Clouds
4:10 AM 39.2 °F - 37.4 °F 93% 30.21 in 1.8 mi Calm Calm - N/A   Scattered Clouds
4:15 AM 37.4 °F - 37.4 °F 100% 30.22 in 0.8 mi Calm Calm - N/A   Mist
4:28 AM 39.2 °F 37.0 °F 39.2 °F 100% 30.22 in 1.2 mi East 3.5 mph - N/A   Mostly Cloudy
4:33 AM 41.0 °F - 39.2 °F 93% 30.22 in 3.0 mi Calm Calm - N/A   Overcast
4:45 AM 39.2 °F 37.0 °F 39.2 °F 100% 30.21 in 2.5 mi ENE 3.5 mph - N/A   Overcast
4:53 AM 41.0 °F - 39.0 °F 93% 30.22 in 4.0 mi Calm Calm - N/A   Overcast
4:58 AM 41.0 °F - 39.2 °F 93% 30.22 in 1.8 mi Calm Calm - N/A   Overcast
5:09 AM 41.0 °F - 39.2 °F 93% 30.22 in 0.8 mi Calm Calm - N/A   Overcast
5:17 AM 42.8 °F - 41.0 °F 93% 30.22 in 1.8 mi Calm Calm - N/A   Overcast
5:53 AM 42.1 °F - 39.9 °F 92% 30.23 in 1.2 mi Calm Calm - N/A   Overcast
6:53 AM 42.1 °F - 41.0 °F 96% 30.23 in 1.0 mi Calm Calm - N/A   Mist
7:00 AM 42.8 °F - 41.0 °F 93% 30.22 in 0.5 mi Calm Calm - N/A Fog Fog
7:53 AM 42.1 °F 40.2 °F 41.0 °F 96% 30.25 in 0.2 mi ENE 3.5 mph - N/A Fog Fog
8:53 AM 43.0 °F 41.3 °F 42.1 °F 97% 30.25 in 1.0 mi ENE 3.5 mph - N/A   Overcast
9:10 AM 42.8 °F 39.3 °F 41.0 °F 93% 30.24 in 0.5 mi ENE 5.8 mph - N/A Fog Fog
9:53 AM 44.1 °F 41.5 °F 43.0 °F 96% 30.26 in 1.2 mi East 4.6 mph - N/A   Overcast
10:06 AM 44.6 °F 42.2 °F 44.6 °F 100% 30.24 in 3.0 mi East 4.6 mph - N/A   Overcast
10:27 AM 44.6 °F 43.1 °F 44.6 °F 100% 30.24 in 5.0 mi ESE 3.5 mph - N/A   Overcast
10:53 AM 46.0 °F 43.1 °F 44.1 °F 93% 30.25 in 3.0 mi East 5.8 mph - N/A   Overcast
11:35 AM 48.2 °F - 44.6 °F 87% 30.23 in 7.0 mi Calm Calm - N/A   Overcast
11:53 AM 50.0 °F - 44.1 °F 80% 30.24 in 8.0 mi ESE 3.5 mph - N/A   Mostly Cloudy
12:12 PM 51.8 °F - 44.6 °F 76% 30.22 in 8.0 mi Calm Calm - N/A   Scattered Clouds
12:53 PM 55.0 °F - 45.0 °F 69% 30.22 in 10.0 mi Calm Calm - N/A   Clear
1:53 PM 59.0 °F - 46.0 °F 62% 30.18 in 10.0 mi Calm Calm - N/A   Clear
2:53 PM 61.0 °F - 46.0 °F 58% 30.16 in 10.0 mi Calm Calm - N/A   Clear
3:53 PM 63.0 °F - 46.0 °F 54% 30.15 in 10.0 mi Calm Calm - N/A   Clear
4:53 PM 64.0 °F - 46.0 °F 52% 30.13 in 10.0 mi Calm Calm - N/A   Clear
5:53 PM 54.0 °F - 46.0 °F 75% 30.14 in 10.0 mi Calm Calm - N/A   Clear
6:53 PM 48.9 °F - 45.0 °F 86% 30.14 in 10.0 mi Calm Calm - N/A   Clear
7:53 PM 46.9 °F - 43.0 °F 86% 30.16 in 10.0 mi NE 3.5 mph - N/A   Clear
8:53 PM 46.9 °F - 43.0 °F 86% 30.15 in 10.0 mi Calm Calm - N/A   Clear
9:53 PM 44.1 °F - 42.1 °F 93% 30.16 in 9.0 mi Calm Calm - N/A   Clear
10:45 PM 42.8 °F - 41.0 °F 93% 30.15 in 1.8 mi Calm Calm - N/A   Clear
10:53 PM 43.0 °F - 42.1 °F 97% 30.17 in 1.2 mi Calm Calm - N/A   Clear
11:03 PM 42.8 °F - 42.8 °F 100% 30.15 in 1.5 mi Calm Calm - N/A   Partly Cloudy
11:07 PM 42.8 °F - 42.8 °F 100% 30.15 in 3.0 mi Calm Calm - N/A   Partly Cloudy
11:19 PM 42.8 °F - 41.0 °F 93% 30.15 in 1.8 mi Calm Calm - N/A   Clear
11:25 PM 42.8 °F 41.1 °F 41.0 °F 93% 30.15 in 3.0 mi NNE 3.5 mph - N/A   Clear
11:53 PM 45.0 °F - 42.1 °F 90% 30.16 in 8.0 mi Calm Calm - N/A   Clear